Regional Weather Roundup
Issued by NWS Green Bay, WI

Home | Current Version | Previous Version | Graphics & Text | Print | Product List | Glossary Off
Versions: 1 2 3 4 5 6 7 8 9 10 11 12 13 14 15 16 17 18 19 20 21 22 23 24 25 26 27 28 29 30 31 32 33 34 35 36 37 38 39 40 41 42 43 44 45 46 47 48 49 50

000
ASUS43 KGRB 300911
RWRGRB

NORTH-CENTRAL AND NORTHEAST WISCONSIN REGIONAL WEATHER ROUNDUP
NATIONAL WEATHER SERVICE GREEN BAY WI
400 AM CDT FRI SEP 30 2016

WIZ005-009-010>012-018-019-301000-
NORTH CENTRAL WISCONSIN

CITY           SKY/WX    TMP DP  RH WIND       PRES   REMARKS
IRONWOOD       CLOUDY    51  49  92 E7        30.45S
MANITOWISH WTR FOG       44  44 100 CALM      30.42S VSB 1/4
ARBOR VITAE    CLEAR     49  48  96 N3        30.41S
EAGLE RIVER    CLEAR     43  43 100 CALM      30.41S FOG
LAND O LAKES   PTCLDY    47  47 100 N3        30.43F FOG
RHINELANDER    CLEAR     46  46 100 N3        30.40F
PHILLIPS       CLOUDY    47  47 100 NE6       30.41S FOG
ANTIGO         CLEAR     47  46  97 CALM      30.36F
TOMAHAWK       CLEAR     44  43  97 CALM      30.40S
MERRILL        CLEAR     46  46 100 N5        30.38F
$$

WIZ013-073-301000-
NORTHEAST WISCONSIN

CITY           SKY/WX    TMP DP  RH WIND       PRES   REMARKS
IRON MOUNTAIN  CLEAR     47  45  93 N7        30.37F
MARINETTE      CLOUDY    55  53  93 N7        30.34S
OCONTO         CLOUDY    55  52  89 N7        30.32F
$$

WIZ017-030-035>037-045-301000-
CENTRAL WISCONSIN

CITY           SKY/WX    TMP DP  RH WIND       PRES   REMARKS
MEDFORD        CLEAR    N/A N/A N/A NE6       30.38R
WAUSAU         CLEAR     50  47  89 N6        30.34F
MOSINEE        CLEAR     50  48  93 N10       30.34F
MARSHFIELD     CLEAR     52  48  86 N9        30.33F
WISC RAPIDS    CLEAR     52  50  93 NE8       30.34F
STEVENS POINT  CLEAR     48  47  99 NE6       30.33S
WAUPACA        MOCLDY    56  53  90 N8        30.31S
SHAWANO        MOCLDY    56  52  87 N8        30.33F
CLINTONVILLE   MOCLDY    54  50  87 N7        30.31F
WAUTOMA        CLOUDY    55  52  89 N7        30.30F
$$

WIZ038-039-048-051-301000-
FOX VALLEY

CITY           SKY/WX    TMP DP  RH WIND       PRES   REMARKS
NWS GREEN BAY  CLOUDY    57  55  93 N12       30.30S
APPLETON       CLOUDY    55  54  94 N13       30.29R
OSHKOSH        CLOUDY    58  55  90 N16       30.27F
FOND DU LAC    CLOUDY    59  56  89 NE14      30.27R
$$

WIZ022-050-052-301000-
EAST CENTRAL WISCONSIN

CITY           SKY/WX    TMP DP  RH WIND       PRES   REMARKS
EPHRAIM        PTSUNNY   58  57  95 NE7       30.32S
WASHINGTON ISL PTSUNNY   59  56  92 NE8       30.33S
STURGEON BAY   CLOUDY    59  56  89 N8        30.32S
MANITOWOC      CLOUDY    60  56  86 MISG      30.28S
SHEBOYGAN      CLOUDY    61  55  81 NE16      30.26R
$$

LMZ563-521-522-541>543-301000-
LAKESHORE

STATION/POSITION TIME  TEMP    WIND        PRES    VSBY  WAVE
                       AIR SEA DIR/SP/G                  HT/PER
                 (UTC) (F)     (DEG/KT/KT) (MB)    (MI)  (FT/S)
SHEBOYGAN LKSHOR 0900   61      30/ 17/ 18 1024.4R
KEWAUNEE LKSHORE 0800   62      50/  9/ 14 1025.1F
NORTHPORT PIER   0800   61      10/ 10/ 11 1026.8F
N MID LAKE BUOY  0850   64 65   80/ 17/ 21 1026.2S         4/ 5
S GREEN BAY BUOY 0800   58 62   20/ 16/ 17 1025.8F
SISTER BAY LKSHO 0808   59      40/  5/  7   N/A
CHAMBERS ISLAND  0800   61      10/ 16/ 19 1026.4F
MENOMINEE LKSHOR 0800   58      10/ 15/ 17 1026.0F
$$



USA.gov is the U.S. government's official web portal to all federal, state and local government web resources and services.